World > North America > United States > California > Garden Valley  

Garden Valley, CA Hourly Weather Forecast

Feedback E-mail the Weather

Quick Clicks

Weather World

24 Hour Forecast

Current Conditions - Clear. Temperature is 64°F18°C, dew point 50°F10°C, humidity 59%. Wind direction is E at 7 mph11 km/h with visibility of 10 mi16 km. Barometric pressure is 29.95 in1014 mb.
Today - Partly cloudy in the morning then clearing. Highs 69 to 79. Light winds becoming west up to 10 mph in the afternoon... Full Forecast
Tonight - Clear. Lows 49 to 55. Prevailing west winds up to 10 mph in the evening becoming light... Full Forecast

Garden Valley Hourly Weather

24 Hour Weather Scroll
Fri, Apr 19
8:00 am
Fri, Apr 19
9:00 am
Fri, Apr 19
10:00 am
Fri, Apr 19
11:00 am
Fri, Apr 19
Noon
Fri, Apr 19
1:00 pm
Fri, Apr 19
2:00 pm
Fri, Apr 19
3:00 pm
Fri, Apr 19
4:00 pm
Fri, Apr 19
5:00 pm
Fri, Apr 19
6:00 pm
Fri, Apr 19
7:00 pm
Fri, Apr 19
8:00 pm
Fri, Apr 19
9:00 pm
Fri, Apr 19
10:00 pm
Fri, Apr 19
11:00 pm
Sat, Apr 20
Midnight
Sat, Apr 20
1:00 am
Sat, Apr 20
2:00 am
Sat, Apr 20
3:00 am
Sat, Apr 20
4:00 am
Sat, Apr 20
5:00 am
Sat, Apr 20
6:00 am
Sat, Apr 20
7:00 am
SunnyPartly Cloudy SunnySunnySunnySunnySunnySunnySunnySunnySunnySunnyClear Clear Clear Clear Clear Overcast Partly Cloudy Cloudy Partly Cloudy Clear Clear Sunny
Sunny Partly Cloudy Sunny Sunny Sunny Sunny Sunny Sunny Sunny Sunny Sunny Sunny Clear Clear Clear Clear Clear Overcast Partly Cloudy Cloudy Partly Cloudy Clear Clear Sunny
64°F18°C 64°F18°C 66°F19°C 69°F20°C 70°F21°C 71°F22°C 72°F22°C 72°F22°C 72°F22°C 71°F21°C 68°F20°C 63°F17°C 60°F15°C 58°F14°C 56°F14°C 55°F13°C 55°F13°C 54°F12°C 54°F12°C 54°F12°C 53°F12°C 52°F11°C 53°F11°C 55°F13°C
46°F
8°C
47°F
8°C
49°F
9°C
50°F
10°C
50°F
10°C
51°F
10°C
51°F
11°C
51°F
11°C
52°F
11°C
53°F
11°C
55°F
13°C
57°F
14°C
55°F
13°C
54°F
12°C
53°F
12°C
52°F
11°C
51°F
11°C
50°F
10°C
48°F
9°C
46°F
8°C
44°F
7°C
42°F
6°C
41°F
5°C
41°F
5°C
30 in
1016 mb
29.91 in
1013 mb
29.91 in
1013 mb
29.91 in
1013 mb
29.91 in
1013 mb
29.88 in
1012 mb
29.88 in
1012 mb
29.88 in
1012 mb
29.88 in
1012 mb
29.88 in
1012 mb
29.88 in
1012 mb
29.88 in
1012 mb
29.91 in
1013 mb
29.94 in
1014 mb
29.94 in
1014 mb
29.94 in
1014 mb
29.94 in
1014 mb
29.94 in
1014 mb
29.94 in
1014 mb
29.94 in
1014 mb
29.97 in
1015 mb
29.97 in
1015 mb
30 in
1016 mb
30 in
1016 mb
42%53%52%50%48%47%47%47%49%52%60%75%87%90%91%90%88%85%80%76%69%68%66%65%
NWSWWWSWWSWWSWWSWWWWWWSWSEEEEEEEEEEEE
2 mph
4 km/h
2 mph
3 km/h
4 mph
6 km/h
5 mph
8 km/h
6 mph
10 km/h
7 mph
11 km/h
7 mph
12 km/h
7 mph
12 km/h
6 mph
10 km/h
6 mph
9 km/h
4 mph
7 km/h
3 mph
4 km/h
1 mph
2 km/h
4 mph
6 km/h
4 mph
7 km/h
5 mph
8 km/h
4 mph
7 km/h
4 mph
7 km/h
4 mph
7 km/h
4 mph
7 km/h
4 mph
6 km/h
5 mph
8 km/h
4 mph
7 km/h
4 mph
7 km/h
0%0%0%0%0%0%0%0%0%0%0%0%0%0%0%0%0%0%0%0%0%0%0%0%
10 mi
16 km
6 mi
10 km
6 mi
10 km
6 mi
10 km
6 mi
10 km
6 mi
10 km
6 mi
10 km
6 mi
10 km
6 mi
10 km
6 mi
10 km
6 mi
10 km
6 mi
10 km
6 mi
10 km
6 mi
10 km
6 mi
10 km
6 mi
10 km
6 mi
10 km
6 mi
10 km
6 mi
10 km
6 mi
10 km
6 mi
10 km
6 mi
10 km
6 mi
10 km
6 mi
10 km

Day/Time
Weather
Condition
Temperature
Dew Point
Pressure
Humidity
Wind Direction
Wind Speed
Prob Precip %
Visibility
POP = Probability of Precipitation. ** Indicates missing data/values from KAUN model statistics.

Trending Headlines

Trending Entertainment Headlines

Garden Valley Radar Loop

Use the map search tool if you want to place a location marker on the radar map...

48 Hour API Forecast

Prob Precip % = Probability of Precipitation.

Garden Valley 36 Hour Forecast

POP = Probability of Precipitation. ** Indicates missing data/values from model statistics.

E-mail the Garden Valley Weather Forecast

Voice your opinion or tell us about page issues...

Garden Valley CA Weather - 11:51 am

What are people saying?

Contact Us